Location: Unspecified
(0.0000°N, 0.0000°E)
Time: 09:30:44
(UTC+00:00)

STARLINK-32002 - Pass Details

Date: 14 December 2025
Orbit: 475 x 476 km, 53.2° (Epoch: 18 January)

Event Time Altitude Azimuth Distance (km) Brightness Sun altitude
Rises 18:26:37 0° 224° (SW) 2,513 8.4 -7.3°
Reaches altitude 10° 18:28:50 10° 230° (SW) 1,633 7.5 -7.8°
Maximum altitude 18:32:22 45° 304° (WNW) 647 4.3 -8.6°
Drops below altitude 10° 18:35:54 10° 18° (NNE) 1,626 5.6 -9.4°
Enters shadow 18:36:54 - 21° (NNE) 2,021 6.1 -9.6°
